Location: Starry Hill Observatory
(46.8582°N, 122.3590°W)
Time: 09:08:58
(UTC-07:00)

Daily predictions for brighter satellites

Satellite Brightness Start Highest point End
(mag) Time Altitude Azimuth Time Altitude Azimuth Time Altitude Azimuth
Meteor 2-4 Rocket 4.1 21:24:51 10° SSW 21:30:44 78° WNW 21:36:43 10° N
PSLV R/B 3.4 21:28:33 10° SSE 21:31:35 55° ENE 21:34:40 10° N
Cosmos 2333 Rocket 4.3 21:26:51 10° WSW 21:31:55 33° NW 21:37:02 10° NNE
Okean 2 3.9 21:30:10 10° SSW 21:34:19 65° W 21:38:30 10° N
Aureole 2 Rocket 2.7 21:32:07 10° SSW 21:35:57 81° WNW 21:39:28 10° NNE
Cosmos 1943 4.2 21:35:18 10° SSE 21:39:55 27° ESE 21:44:35 10° NE
CZ-2C R/B 3.1 21:38:58 10° SSW 21:40:45 19° W 21:42:32 10° NW
Cosmos 1943 Rocket 3.8 21:36:26 10° N 21:40:48 23° NE 21:45:09 10° E
Lacrosse 4 Rocket 3.3 21:39:38 10° SE 21:41:15 12° ESE 21:42:52 10° E
USA 186 4.4 21:40:39 10° WSW 21:41:57 13° W 21:43:15 10° WNW
H-2A R/B 3.6 21:39:08 10° ESE 21:42:44 21° ENE 21:46:25 10° NNE
MetOp-A 4.3 21:37:49 10° SSE 21:43:07 65° ENE 21:48:27 10° N
Nimbus 7 Rocket 4.4 21:39:21 10° NNE 21:45:22 77° ESE 21:51:16 10° S
SeaSat 1 2.5 21:44:33 10° SSE 21:49:30 83° WSW 21:54:28 10° NNW
UNK 4.4 21:44:18 10° NNE 21:49:36 54° ESE 21:55:08 10° S
SPOT 1/Viking Rocket 3.8 21:46:10 10° SSE 21:51:11 55° ENE 21:56:13 10° N
CZ-4B R/B 3.8 21:50:37 10° NNE 21:55:33 49° E 22:00:34 10° S
Cosmos 1461 4.4 21:54:38 10° NW 21:58:26 31° WSW 22:02:03 10° S
Cosmos 1238 4.0 22:02:40 10° S 22:05:46 79° E 22:08:49 10° N
ARGOS 3.2 22:14:47 14° SSE 22:19:33 77° ENE 22:25:00 10° NNW
Cosmos 2369 Rocket 2.2 22:15:03 10° NNW 22:20:46 88° ENE 22:25:16 17° SSE
ISS -3.1 22:19:43 10° SW 22:22:51 45° SE 22:26:00 10° ENE
Cosmos 1825 Rocket 3.5 22:20:10 10° S 22:24:36 73° E 22:29:02 10° NNE
CZ-4C R/B 3.6 22:22:05 18° SSE 22:25:06 62° ENE 22:29:07 10° N
PSLV R/B 4.3 22:24:22 10° SW 22:27:30 29° S 22:28:47 23° SE
ATLAS 3B R/B 3.1 22:20:11 10° S 22:27:32 51° ESE 22:34:44 10° NE
SL-27 R/B 4.4 22:28:34 13° E 22:28:34 13° E 22:30:05 10° ENE
SL-16 R/B 4.4 22:26:50 10° WSW 22:31:39 28° NW 22:36:30 10° N
SL-8 R/B 3.9 22:27:10 10° W 22:32:01 74° N 22:36:52 10° E
Envisat 4.4 22:27:31 10° SSW 22:32:06 34° W 22:36:43 10° NNW
Atlas Centaur 2 4.0 22:28:25 10° SW 22:34:23 24° S 22:38:00 18° SE
NOAA 11 4.2 22:31:39 16° SSE 22:36:05 85° WSW 22:41:33 10° NNW
Cosmos 407 Rocket 3.7 22:31:34 12° S 22:36:17 53° ESE 22:41:22 10° NNE
CZ-4 R/B 3.9 22:32:37 10° NNE 22:37:39 82° ESE 22:42:39 10° SSW
Cosmos 1953 3.2 22:36:54 10° N 22:40:35 34° ENE 22:42:23 23° ESE
USA 234 3.6 22:35:50 18° SSE 22:40:45 57° SW 22:47:14 10° WNW
SL-08 RB Rocket 3.7 22:37:33 18° S 22:40:54 80° WSW 22:45:27 10° NNW
Lacrosse 5 rocket 3.8 22:40:01 10° WNW 22:43:22 24° NNW 22:46:51 10° NE
Cosmos 2263 4.2 22:41:30 10° NNW 22:47:09 80° WSW 22:50:53 22° SSE
Landsat 7 3.8 22:45:23 21° SSE 22:48:32 89° ENE 22:53:20 10° NNW
Spot 4 4.1 22:48:23 24° SE 22:51:08 56° ENE 22:55:51 10° N
YAOGAN 6 4.2 22:48:44 12° SSW 22:51:46 31° W 22:55:09 10° NNW
Meteor 1-22 Rocket 4.4 22:47:08 10° NNW 22:52:40 70° W 22:57:03 18° S
COSMOS 2406 4.2 22:51:29 22° SE 22:53:30 27° ESE 22:58:15 10° NE
Cosmos 1954 Rocket 4.4 22:52:49 22° SSE 22:55:52 46° ESE 23:00:56 10° NNE
COSMOS 2455 3.5 22:53:58 10° SW 22:59:53 59° NW 23:05:52 10° NNE
Cosmos 1346 Rocket 3.2 22:59:54 15° SSW 23:03:01 60° WNW 23:06:56 10° N
Lacrosse 5 4.0 22:59:04 10° NW 23:03:19 26° N 23:07:32 10° ENE
Terra 1.8 23:01:39 26° SSE 23:04:20 90° ENE 23:09:09 10° NNW
USA 238 DEB 4.3 23:01:03 21° S 23:05:10 38° ESE 23:11:35 10° NE
USA 238 4.3 23:01:14 21° SSE 23:05:17 38° ESE 23:11:40 10° NE
IGS 5A 3.4 23:04:05 31° SSE 23:06:02 86° E 23:10:14 10° NNW
Cosmos 2084 3.5 23:05:04 10° NW 23:09:10 71° NE 23:11:07 31° SE
Cosmos 1953 Rocket 4.3 23:06:53 12° SSW 23:10:47 51° WNW 23:15:09 10° N
CZ-4C R/B 4.2 23:12:00 11° E 23:12:00 11° E 23:13:19 10° E
SAR-Lupe-2 4.1 23:14:03 31° SSW 23:15:28 52° W 23:19:01 10° NNW
Cosmos 1842 3.2 23:14:45 31° S 23:16:33 88° W 23:20:30 10° N
Lacrosse 4 Rocket 1.5 23:15:32 11° SW 23:19:22 73° WNW 23:23:29 10° NNE
Cosmos 2221 4.2 23:16:52 10° NNE 23:20:14 22° ENE 23:21:43 18° E
H-2A R/B 2.3 23:18:55 25° S 23:21:42 61° W 23:26:45 10° NNW
Cosmos 2279 Rocket 4.3 23:15:43 10° NNW 23:21:52 61° W 23:26:09 20° SSW
Geosat 4.1 23:16:49 10° NNE 23:21:53 80° WNW 23:26:54 10° SW
Cosmos-2242 3.2 23:19:02 10° NNW 23:23:25 68° W 23:25:25 31° S
Cosmos 1943 3.9 23:18:05 10° SW 23:23:38 54° WNW 23:29:14 10° NNE
Cosmos 1943 Rocket 2.2 23:19:35 10° NNW 23:25:07 73° WSW 23:27:52 31° S
Cosmos 1758 3.4 23:22:19 10° NNW 23:26:28 77° W 23:27:57 38° S
Cosmos 1570 Rocket 4.0 23:22:34 10° NNW 23:27:58 83° ENE 23:30:26 33° SSE
Cosmos 1900 4.5 23:25:25 10° SW 23:30:35 80° NW 23:35:46 10° NNE
Cosmos 1850 Rocket 4.3 23:30:32 34° SSE 23:32:21 48° ESE 23:37:22 10° NNE
Cosmos 1932 4.4 23:31:51 18° SSW 23:36:34 70° ESE 23:42:48 10° NE
Okean 3 Rocket 4.2 23:37:59 35° ESE 23:38:52 39° E 23:42:58 10° NNE
Cosmos 1656 Rocket 3.7 23:34:17 10° NNW 23:40:00 77° ENE 23:42:37 33° SE
SL-23 DEB 3.8 23:35:49 10° SW 23:40:49 60° SSE 23:44:09 10° ENE
Cosmos 1733 3.9 23:37:25 10° N 23:41:07 41° ENE 23:41:50 37° ESE
Cosmos 1607 4.2 23:40:55 31° S 23:43:27 48° ESE 23:49:24 10° NE
DMSP B5D2-2 4.4 23:39:16 10° N 23:44:30 65° WNW 23:48:02 21° SSW
Cosmos 1023 Rocket 4.4 23:42:48 31° SSW 23:45:24 79° ESE 23:50:41 10° NNE
Meteor 2-5 Rocket 4.1 23:48:01 34° SSE 23:50:16 54° E 23:55:53 10° NNE
Cosmos 1140 Rocket 3.4 23:48:52 30° SSW 23:51:31 88° ESE 23:56:48 10° NNE
COSMOS 2487 3.1 23:55:27 42° E 23:55:27 42° E 23:58:38 10° NNE
